Orbital Elements at Epoch 2457390.5 (2016-Jan-03.0) TDB
Reference: JPL 3 (heliocentric ecliptic J2000)
Element | Value | Uncertainty (1-sigma) | Units |
e | .5321036764559152 | 0.0019444 | |
a | 1.560456234211471 | 0.0051417 | au |
q | .7301317350389946 | 0.00062912 | au |
i | 6.774672203457796 | 0.020174 | deg |
node | 97.34741582215864 | 0.0033982 | deg |
peri | 83.51702691743866 | 0.0061221 | deg |
M | 333.8979921621487 | 0.15956 | deg |
tp | 2457442.123474443398 (2016-Feb-23.62347444) | 0.060455 | TDB |
period | 711.9931506829682 1.95 | 3.519 0.009634 | d yr |
n | .5056228415325003 | 0.002499 | deg/d |
Q | 2.390780733383947 | 0.0078776 | au |
|
| | Orbit Determination Parameters
Additional Information
|